{"data":{"norad_id":63745,"intl_designator":"2025-088X","name":"KUIPER-00032","alt_names":[],"object_type":"PAYLOAD","status":"ACTIVE","operator":null,"country":"US","launch_date":"2025-04-28","launch_site_code":"AFETR","launch_vehicle":null,"mission":null,"orbit_class":"UNKNOWN","rcs_meters":null,"size_class":null,"mass_kg":null,"dimensions":null,"purposes":[],"wikipedia_slug":null,"has_3d_model":false,"image_url":null,"decayed_at":null,"tle_current":{"epoch":"2026-05-25T01:23:30.551136Z","epoch_age_seconds":60293,"freshness":"FRESH","line1":"1 63745U 25088X   26145.05799249  .00013898  00000+0  35839-3 0  9990","line2":"2 63745  51.8682  14.2777 0004946  47.2485 312.8918 15.39450626 61301","mean_motion":15.39450626,"eccentricity":0.0004946,"inclination_deg":51.8682,"raan_deg":14.2777,"arg_perigee_deg":47.2485,"mean_anomaly_deg":312.8918,"bstar":0.00035839,"rev_number":6130,"period_min":93.539862576924,"perigee_km":444.35669663171,"apogee_km":451.10884701,"semimajor_km":6825.8697718209,"source":"CELESTRAK","updated_at":"2026-05-25T13:38:03.930354Z"}}}